星链-11686 (STARLINK-11686)

导读

STARLINK-11686是美国于2025年6月3日发射的Starlink星链卫星,属于SpaceX公司搭建的星链互联网卫星星座,星链项目旨在为全球提供高速低延迟的宽带互联网服务,该卫星发射后进入近地轨道,持续为星座网络提供扩容,支撑全球覆盖目标推进。

基本信息
目录编号:
64233
目录名称:
STARLINK-11686
国际标识:
2025-119A
轨道中心:
EARTH
卫星名称:
星链-11686
卫星全名:
星链-11686 (STARLINK-11686)
卫星状态:
在轨 (已飞行459 天)
发射日期:
2025-06-03 UTC
国别 :
美国 (US)
星等 :
--
轨道信息
数据来源 国际轨道数据
星历时间: 2026-09-05T06:40:54+0800
13小时前
查看轨道信息
半长轴: 6734.361km
偏心率: 0.0001656
轨道倾角: 43.000°
近地点辐角 230.408°
升交点赤经 208.919°
平近点角 129.664°
近地点: 355.108km
远地点: 357.34km
周期: 91.665分钟
每日圈数: 15.70935
详细信息
固有亮度:
5
最大亮度:
2.5
卫星平台:
Starlink V1.0
覆盖范围:
全球
运营商:
太空探索技术公司
运营商所在国:
美国
制造商(研发单位):
太空探索技术公司
制造商所在国:
美国
使用方式:
暂无
卫星简介
Starlink 计划是 SpaceX 推出的全球卫星互联网项目,通过发射低轨道卫星,为全球尤其是偏远地区提供高速、低延迟的互联网服务。自 2019 年起,Starlink 已部署数千颗卫星,旨在缩小全球数字鸿沟,推动互联网普及。该项目还为军事、航空等行业提供通信支持,带来广泛经济效益。
2D轨道图
3D轨道图
轨道高度分析图
轨道倾角分析图
轨道综合分析图
查看轨道综合分析图
交会数据列表
事件ID 空间交会对象 最接近时刻(TCA) 交会距离 交会风险概率(CRP) 交会风险指数(CRI) 操作
CDM_260907-220606-367006-423321
2026-09-07T
22:06:46+0000
0.680 km
远距离
5.088386E-5 中风险 0.69
CDM_260907-194906-367006-423321
2026-09-07T
19:49:29+0000
1.237 km
极远距离
6.874218E-6 低风险 0.52
CDM_260907-051906-174506-423321
2026-09-07T
05:19:27+0000
1.962 km
极远距离
2.306007E-6 低风险 0.42
CDM_260907-060506-174506-423321
2026-09-07T
06:05:15+0000
2.999 km
极远距离
1.055545E-6 低风险 0.35